CST,Max TemperatureF,Mean TemperatureF,Min TemperatureF,Max Dew PointF,MeanDew PointF,Min DewpointF,Max Humidity, Mean Humidity, Min Humidity, Max Sea Level PressureIn, Mean Sea Level PressureIn, Min Sea Level PressureIn, Max VisibilityMiles, Mean VisibilityMiles, Min VisibilityMiles, Max Wind SpeedMPH, Mean Wind SpeedMPH, Max Gust SpeedMPH,PrecipitationIn, CloudCover, Events, WindDirDegrees
2012-12-1,71,54,36,52,43,35,92,70,47,30.32,30.27,30.21,10,7,0,16,5,21,0.00,1,Fog,141
2012-12-2,74,62,50,55,51,44,83,68,53,30.30,30.24,30.19,10,10,10,18,7,24,0.00,4,,168
2012-12-3,75,61,46,55,50,44,93,68,43,30.26,30.21,30.16,10,10,10,17,7,21,0.00,1,,149
2012-12-4,72,63,53,63,57,52,93,80,66,30.23,30.18,30.13,10,8,0,21,8,26,0.33,7,Fog-Rain,202
2012-12-5,64,59,53,55,49,39,93,70,46,30.28,30.19,30.11,10,7,0,14,5,18,0.01,8,Fog-Rain,55
2012-12-6,70,60,50,54,50,44,89,73,57,30.12,30.06,30.00,10,10,10,9,4,12,0.00,7,,119
2012-12-7,66,59,51,57,53,47,93,83,73,30.02,29.98,29.91,10,9,6,15,7,18,0.00,6,,145
2012-12-8,72,64,56,58,56,54,93,75,57,29.99,29.95,29.91,10,9,6,14,7,17,0.00,5,,185
2012-12-9,75,67,59,60,58,55,90,74,57,29.99,29.92,29.78,10,9,5,18,9,23,0.00,4,,169
2012-12-10,69,53,37,63,47,29,93,82,70,30.04,29.83,29.75,10,7,1,24,9,36,1.21,8,Rain-Thunderstorm,302
2012-12-11,46,39,31,29,26,24,76,59,42,30.27,30.16,30.05,10,10,10,12,5,16,0.00,4,,15
2012-12-12,51,39,27,26,24,22,78,56,34,30.35,30.30,30.26,10,10,9,13,6,17,0.00,0,,40
2012-12-13,58,41,23,31,25,20,88,58,28,30.42,30.36,30.30,10,10,10,6,0,8,0.00,0,,166
2012-12-14,60,43,25,41,34,24,85,65,44,30.36,30.27,30.16,10,10,8,12,3,14,0.00,0,,121
2012-12-15,64,56,47,56,49,41,82,72,62,30.16,30.02,29.90,10,10,6,20,10,26,0.10,8,Rain,177
2012-12-16,64,61,57,59,56,54,90,84,78,29.90,29.85,29.77,10,9,2,22,10,29,0.90,7,Rain-Thunderstorm,186
2012-12-17,66,55,44,56,52,38,93,78,63,29.86,29.75,29.65,10,9,2,18,9,24,T,6,Rain,223
2012-12-18,62,48,33,40,35,30,96,65,34,30.00,29.94,29.87,10,5,0,12,3,14,0.00,1,Fog,161
2012-12-19,70,55,40,45,41,36,86,59,31,30.06,29.97,29.84,10,10,10,15,6,22,T,0,,139
2012-12-20,62,50,38,57,41,19,87,66,44,30.06,29.78,29.61,10,9,2,39,20,48,0.44,7,Rain,242
2012-12-21,48,39,30,19,16,10,58,41,23,30.32,30.22,30.06,10,10,10,26,14,33,0.00,0,,300
2012-12-22,54,37,20,26,20,15,84,55,26,30.40,30.30,30.18,10,10,10,7,2,8,0.00,0,,160
2012-12-23,52,42,32,48,39,25,93,73,53,30.16,30.06,29.91,10,8,2,16,6,21,0.41,6,Rain,193
2012-12-24,64,52,40,56,50,37,93,75,56,29.98,29.88,29.80,10,9,2,16,6,20,0.00,5,,281
2012-12-25,56,51,45,52,44,41,93,87,80,30.01,29.76,29.41,10,5,2,22,9,30,1.56,8,Rain-Thunderstorm,62
2012-12-26,56,45,34,52,34,26,82,76,70,30.17,29.73,29.41,10,9,3,31,16,40,0.02,8,Rain-Snow,271
2012-12-27,37,34,30,28,27,26,82,73,64,30.22,30.16,30.09,10,10,10,12,4,15,0.00,7,,76
2012-12-28,44,37,30,40,35,27,85,80,75,30.12,29.93,29.77,10,7,2,16,6,18,0.42,8,Rain,123
2012-12-29,42,37,32,38,28,21,89,76,63,30.43,30.15,29.85,10,10,5,21,12,28,0.01,8,Rain,307
2012-12-30,43,34,25,26,22,19,85,64,43,30.56,30.47,30.39,10,10,8,10,3,14,0.00,1,,22
2012-12-31,53,42,30,45,31,26,85,66,46,30.39,30.23,30.02,10,10,10,16,5,20,0.01,5,Rain,151